[[{"header":{"parameterUnit":"m.s-1","parameterCategory":1,"la1":30.2991,"la2":30.254,"lo1":-89.0895,"lo2":-89.0444,"dy":0.0017,"dx":0.0017,"nx":28,"ny":28,"refTime":"2024-12-31T03:00:00:Z","depth":0,"parameterNumber":2,"parameterNumberName":"U-component_of_WINDS"},"data":[0,0,0,0,0,0,0,0,0,0,0,0,0,0,0,0,0,0,0,0,0,0,0,0,0,0,0,0,0,0,0,0,0,0,0,0,0,0,0,0,0,0,0,0,0,0,0,0,0,0,0,0,0,0,0,0,0,0,3.5958,3.5959,0,3.5984,3.5984,3.5984,3.5959,3.5958,3.5957,3.5956,3.5983,3.5985,3.5986,0,0,0,0,0,0,0,0,0,0,0,0,0,3.5891,3.5892,3.5958,3.5959,3.5959,3.5983,3.5984,3.5984,3.5959,3.5958,3.5957,3.5955,3.5982,3.5984,3.5986,0,0,0,0,0,0,0,0,0,0,0,0,0,3.5919,3.5893,3.5958,3.5949,3.5949,3.5983,3.5984,3.5984,3.5959,3.5958,3.5956,3.5955,3.5982,3.5984,3.5987,3.6032,0,0,3.5994,3.5995,0,0,0,0,0,0,0,0,3.5917,3.5921,3.595,3.595,3.5949,3.5966,3.597,3.6,3.596,3.5955,3.5956,3.5954,3.5979,3.5981,3.5989,3.6033,3.6034,3.5994,3.5996,3.5997,3.5998,0,0,0,0,0,0,0,3.5915,3.592,3.5968,3.5951,3.595,3.5945,3.5947,3.5976,3.5975,3.5956,3.5954,3.5957,3.5978,3.5987,3.599,3.6034,3.5994,3.5996,3.5998,3.5999,3.6119,3.6121,0,0,0,0,0,0,3.5914,3.5918,3.5967,3.5969,3.5929,3.5947,3.595,3.5963,3.5975,3.5975,3.5958,3.5956,3.5984,3.5987,3.5991,3.6046,3.5997,3.5999,3.6001,3.6117,3.6119,3.6121,0,0,0,0,0,0,3.5913,3.5919,3.5966,3.5943,3.5949,3.595,3.5965,3.5964,3.5973,3.5977,3.5977,3.5967,3.5983,3.5987,3.6022,3.6047,3.6,3.6002,3.6115,3.6118,3.612,3.6156,0,0,0,0,0,0,3.5911,3.5918,3.5935,3.5944,3.595,3.5997,3.5966,3.5965,3.5977,3.5974,3.5985,3.5986,3.5982,3.6019,3.6025,3.6049,3.6004,3.6113,3.6117,3.612,3.6153,3.616,3.6166,0,0,0,0,0,3.5908,3.5943,3.5936,3.5942,3.5971,3.5998,3.6002,3.5996,3.5979,3.5996,3.5999,3.5985,3.6043,3.6022,3.6029,3.6055,3.6112,3.6116,3.6119,3.615,3.6158,3.6165,0,0,0,0,0,0,3.5937,3.5944,3.5936,3.5974,3.5986,3.5994,3.6015,3.6005,3.6022,3.6018,3.6011,3.6014,3.6051,3.6056,3.6033,3.61,3.6075,3.608,3.6096,3.6104,3.611,3.6108,3.6006,0,0,0,0,0,3.5947,3.5968,3.5974,3.6008,3.6014,3.6014,3.6025,3.602,3.6032,3.6037,3.6042,3.6055,3.6076,3.609,3.6109,3.6153,3.6157,3.6175,3.6181,3.6186,3.6191,3.6217,3.6226,3.6134,3.6134,3.6134,0,0,3.597,3.5976,3.599,3.6014,3.6022,3.6045,3.6018,3.6043,3.6061,3.6041,3.6074,3.6079,3.6093,3.6133,3.6151,3.6138,3.6217,3.6191,3.6195,3.6197,3.6222,3.6231,3.6239,3.6137,3.6136,3.6136,0,0,3.6023,3.6029,3.6059,3.6068,3.6081,3.6081,3.6089,3.6099,3.6101,3.6135,3.6121,3.6142,3.6178,3.6189,3.6199,3.6259,3.6248,3.6266,3.6299,3.6325,3.6332,3.6338,3.6362,3.637,3.627,3.6271,3.6271,0,3.6049,3.6082,3.6076,3.6103,3.6114,3.6098,3.6129,3.6138,3.6157,3.6166,3.6152,3.6198,3.6206,3.625,3.6265,3.6273,3.6282,3.6265,3.6331,3.6338,3.6344,3.6366,3.6374,3.6273,3.6273,3.6272,3.6272,0,3.6115,3.6139,3.6162,3.6181,3.6195,3.6224,3.6223,3.6238,3.6232,3.6234,3.627,3.6279,3.6302,3.6311,3.6305,3.6355,3.6347,3.6332,3.6306,3.6355,3.6376,3.6384,3.6276,3.6275,3.6274,3.6274,0,0,3.6186,3.6202,3.6211,3.6221,3.6235,3.6254,3.6283,3.6304,3.6319,3.6333,3.6358,3.639,3.6377,3.6388,3.6384,3.6406,3.6456,3.6389,3.6389,3.6402,3.6514,3.6526,3.6536,3.6448,3.645,3.6451,3.6514,0,3.6241,3.6291,3.6286,3.6334,3.6357,3.6343,3.6369,3.6381,3.6384,3.6405,3.6408,3.6432,3.6411,3.6419,3.644,3.6445,3.6478,3.6441,3.6474,3.6475,3.6472,3.6547,3.6559,3.6618,3.6521,3.6523,3.6524,0,3.6311,3.6328,3.6379,3.6392,3.6401,3.6424,3.6445,3.6465,3.6479,3.648,3.6494,3.6487,3.6518,3.6491,3.6534,3.6509,3.6522,3.6527,3.6529,3.6533,3.6503,3.6554,3.6636,3.6645,3.6536,3.6535,3.6534,0,3.636,3.6396,3.6431,3.644,3.6455,3.6472,3.6479,3.6492,3.6506,3.6525,3.6534,3.6556,3.6568,3.6586,3.6585,3.6565,3.6631,3.6603,3.6634,3.6634,3.6649,3.6648,3.6735,3.6655,3.6655,3.6655,3.6655,0,3.6422,3.6454,3.6454,3.6476,3.6512,3.6507,3.6543,3.6548,3.6561,3.6584,3.6573,3.6596,3.6593,3.6616,3.6616,3.6653,3.6659,3.6661,3.6661,3.6663,3.6663,3.6673,3.6669,3.6657,3.6657,3.6656,3.6656,0,3.6483,3.6484,3.6522,3.6534,3.6538,3.6564,3.6575,3.6596,3.6599,3.6629,3.6636,3.6641,3.6668,3.6669,3.67,3.67,3.6746,3.674,3.6741,3.6741,3.6772,3.677,3.687,3.6883,3.6793,3.6794,3.6794,0,3.6524,3.6548,3.6563,3.6578,3.6587,3.6611,3.6626,3.6623,3.6639,3.6658,3.6678,3.6704,3.6725,3.6769,3.6776,3.68,3.6796,3.683,3.68,3.6802,3.6799,3.6798,3.6802,3.6836,3.6837,3.6838,3.6838,0,3.6596,3.6596,3.6617,3.664,3.6658,3.6675,3.6691,3.6704,3.6703,3.6722,3.675,3.6766,3.6798,3.6825,3.6849,3.6858,3.6849,3.6848,3.6856,3.6859,3.686,3.6862,3.6759,3.6845,3.6845,3.6844,3.6844,3.6844,3.665,3.6672,3.6686,3.6711,3.6723,3.6739,3.676,3.6766,3.6789,3.6815,3.6812,3.6843,3.6859,3.6891,3.6902,3.6927,3.6916,3.6928,3.6931,3.6935,3.6939,3.6855,3.6931,3.6931,3.6931,3.6931,3.6931,0,3.6723,3.6732,3.6755,3.6778,3.6799,3.6788,3.6805,3.6823,3.6851,3.6866,3.6888,3.6921,3.6947,3.6957,3.6983,3.7002,3.6998,3.7009,3.7008,3.7011,3.6947,3.6937,3.7011,3.7011,3.7011,3.7011,3.7011,3.7011,3.6764,3.6801,3.6803,3.6847,3.6855,3.6886,3.6898,3.6913,3.6925,3.6963,3.6985,3.699,3.7004,3.7032,3.7056,3.7058,3.7069,3.7082,3.7083,3.7023,3.7015,3.7007,3.6999,3.7084,3.7084,3.7145,3.7146,3.7146]},{"header":{"parameterUnit":"m.s-1","parameterCategory":1,"la1":30.2991,"la2":30.254,"lo1":-89.0895,"lo2":-89.0444,"dy":0.0017,"dx":0.0017,"nx":28,"ny":28,"refTime":"2024-12-31T03:00:00:Z","depth":0,"parameterNumber":3,"parameterNumberName":"V-component_of_WINDS"},"data":[0,0,0,0,0,0,0,0,0,0,0,0,0,0,0,0,0,0,0,0,0,0,0,0,0,0,0,0,0,0,0,0,0,0,0,0,0,0,0,0,0,0,0,0,0,0,0,0,0,0,0,0,0,0,0,0,0,0,-0.12,-0.12,0,-0.1172,-0.1172,-0.1171,-0.1155,-0.1155,-0.1155,-0.1155,-0.1127,-0.1126,-0.1125,0,0,0,0,0,0,0,0,0,0,0,0,0,-0.1241,-0.124,-0.12,-0.12,-0.1199,-0.1172,-0.1172,-0.1171,-0.1156,-0.1155,-0.1155,-0.1155,-0.1127,-0.1126,-0.1125,0,0,0,0,0,0,0,0,0,0,0,0,0,-0.1219,-0.124,-0.12,-0.1188,-0.1187,-0.1172,-0.1172,-0.1171,-0.1156,-0.1155,-0.1155,-0.1155,-0.1127,-0.1126,-0.1125,-0.112,0,0,-0.1122,-0.1122,0,0,0,0,0,0,0,0,-0.122,-0.1217,-0.119,-0.1189,-0.1187,-0.1167,-0.1176,-0.1154,-0.1156,-0.1167,-0.1155,-0.1155,-0.114,-0.1138,-0.1133,-0.1119,-0.1118,-0.1122,-0.1121,-0.1121,-0.1121,0,0,0,0,0,0,0,-0.1222,-0.1218,-0.1189,-0.119,-0.1188,-0.1185,-0.1181,-0.1171,-0.1155,-0.1166,-0.1165,-0.1162,-0.114,-0.1134,-0.1132,-0.1117,-0.1122,-0.1121,-0.112,-0.112,-0.11,-0.11,0,0,0,0,0,0,-0.1225,-0.122,-0.119,-0.1188,-0.1204,-0.1184,-0.118,-0.1174,-0.1155,-0.1152,-0.1162,-0.1161,-0.1136,-0.1134,-0.1131,-0.1126,-0.1121,-0.112,-0.1119,-0.11,-0.11,-0.11,0,0,0,0,0,0,-0.1226,-0.1222,-0.1191,-0.1204,-0.1199,-0.1183,-0.1176,-0.1173,-0.1168,-0.1152,-0.1149,-0.116,-0.1136,-0.1133,-0.1124,-0.1124,-0.1119,-0.1118,-0.11,-0.11,-0.11,-0.1114,0,0,0,0,0,0,-0.1227,-0.1223,-0.122,-0.1204,-0.1199,-0.1183,-0.1176,-0.1173,-0.1166,-0.1165,-0.1148,-0.1146,-0.1136,-0.1125,-0.1123,-0.1123,-0.1118,-0.11,-0.11,-0.11,-0.1113,-0.1114,-0.1115,0,0,0,0,0,-0.1229,-0.1225,-0.122,-0.1217,-0.1195,-0.1183,-0.1181,-0.1169,-0.1166,-0.1164,-0.1154,-0.1146,-0.1125,-0.1125,-0.1121,-0.1121,-0.11,-0.11,-0.11,-0.1113,-0.1114,-0.1115,0,0,0,0,0,0,-0.1241,-0.1222,-0.1217,-0.1208,-0.1197,-0.1181,-0.1177,-0.1171,-0.1161,-0.116,-0.1146,-0.1143,-0.1135,-0.1127,-0.1127,-0.1117,-0.1112,-0.1111,-0.1122,-0.1123,-0.1124,-0.1127,-0.1117,0,0,0,0,0,-0.1243,-0.1235,-0.1219,-0.1212,-0.1207,-0.1193,-0.1188,-0.118,-0.1169,-0.1164,-0.1153,-0.1143,-0.1134,-0.1128,-0.1119,-0.1112,-0.1109,-0.1111,-0.1112,-0.1113,-0.1113,-0.111,-0.1111,-0.1101,-0.1101,-0.1101,0,0,-0.1246,-0.1235,-0.123,-0.1214,-0.1205,-0.1198,-0.119,-0.1181,-0.1176,-0.1163,-0.1154,-0.1146,-0.1133,-0.1126,-0.1122,-0.1119,-0.1115,-0.1113,-0.1114,-0.1113,-0.1111,-0.1112,-0.1113,-0.1101,-0.1101,-0.1101,0,0,-0.1249,-0.1239,-0.1233,-0.1225,-0.1212,-0.1203,-0.1202,-0.1186,-0.1181,-0.1172,-0.1162,-0.1156,-0.114,-0.1132,-0.1126,-0.1128,-0.1121,-0.1126,-0.1131,-0.1129,-0.113,-0.1131,-0.1133,-0.1133,-0.1126,-0.1126,-0.1126,0,-0.1254,-0.1242,-0.1231,-0.1224,-0.1218,-0.1206,-0.1201,-0.1193,-0.1178,-0.1174,-0.1171,-0.1153,-0.1143,-0.1135,-0.1136,-0.1131,-0.113,-0.1127,-0.1131,-0.1131,-0.1132,-0.1134,-0.1134,-0.1126,-0.1126,-0.1126,-0.1126,0,-0.1251,-0.1243,-0.124,-0.1226,-0.1219,-0.1213,-0.1201,-0.1196,-0.119,-0.1182,-0.1174,-0.1162,-0.1151,-0.1149,-0.1142,-0.114,-0.1139,-0.1133,-0.1128,-0.1134,-0.1135,-0.1136,-0.1127,-0.1127,-0.1127,-0.1127,0,0,-0.1259,-0.1241,-0.124,-0.1234,-0.122,-0.1214,-0.1208,-0.1198,-0.1194,-0.1184,-0.118,-0.1168,-0.1164,-0.1157,-0.1149,-0.1147,-0.1152,-0.1143,-0.1142,-0.1146,-0.1151,-0.1155,-0.1156,-0.1147,-0.1147,-0.1147,-0.1152,0,-0.126,-0.1248,-0.1239,-0.1231,-0.1225,-0.1215,-0.121,-0.1201,-0.1194,-0.1188,-0.118,-0.1172,-0.1166,-0.1162,-0.116,-0.1152,-0.1153,-0.1151,-0.1143,-0.1143,-0.1147,-0.1156,-0.1161,-0.1166,-0.1152,-0.1152,-0.1152,0,-0.1259,-0.1251,-0.1243,-0.1231,-0.1228,-0.1224,-0.1215,-0.1208,-0.1199,-0.1194,-0.1188,-0.118,-0.1174,-0.117,-0.1163,-0.1162,-0.1159,-0.1154,-0.1154,-0.1153,-0.1148,-0.1157,-0.1167,-0.1168,-0.1153,-0.1153,-0.1153,0,-0.1267,-0.1254,-0.1248,-0.1243,-0.1229,-0.1227,-0.1221,-0.1211,-0.1207,-0.1199,-0.1196,-0.1188,-0.1183,-0.1178,-0.1168,-0.1166,-0.1163,-0.1157,-0.1159,-0.116,-0.1159,-0.1159,-0.117,-0.1156,-0.1156,-0.1156,-0.1156,0,-0.1269,-0.1265,-0.1251,-0.1248,-0.1243,-0.1233,-0.1229,-0.1222,-0.1214,-0.121,-0.1201,-0.1197,-0.1185,-0.118,-0.1173,-0.1169,-0.1167,-0.1163,-0.1162,-0.1164,-0.1165,-0.1162,-0.1162,-0.1156,-0.1156,-0.1156,-0.1156,0,-0.1277,-0.1268,-0.1261,-0.1249,-0.1246,-0.1243,-0.1233,-0.123,-0.1223,-0.1218,-0.1216,-0.1205,-0.1199,-0.1189,-0.118,-0.1175,-0.1173,-0.117,-0.1176,-0.1175,-0.1179,-0.1179,-0.1188,-0.1189,-0.1174,-0.1174,-0.1174,0,-0.1279,-0.1276,-0.1264,-0.1261,-0.1255,-0.125,-0.1245,-0.1236,-0.1232,-0.1222,-0.122,-0.1214,-0.1208,-0.1199,-0.119,-0.1184,-0.1181,-0.1184,-0.1179,-0.1183,-0.1182,-0.1183,-0.1183,-0.1185,-0.1186,-0.1186,-0.1186,0,-0.1284,-0.128,-0.1274,-0.1267,-0.1262,-0.1256,-0.125,-0.1248,-0.1237,-0.1233,-0.1227,-0.1223,-0.1214,-0.1208,-0.1201,-0.1195,-0.1189,-0.1188,-0.1188,-0.1191,-0.1196,-0.1194,-0.118,-0.1187,-0.1187,-0.1187,-0.1187,-0.1187,-0.1289,-0.1287,-0.1279,-0.1273,-0.1268,-0.1262,-0.1259,-0.1253,-0.1247,-0.124,-0.1235,-0.123,-0.1222,-0.1212,-0.1207,-0.1204,-0.1201,-0.1201,-0.1201,-0.1202,-0.1203,-0.1196,-0.1202,-0.1202,-0.1202,-0.1202,-0.1202,0,-0.1295,-0.129,-0.1285,-0.1277,-0.1273,-0.1268,-0.1261,-0.1258,-0.1254,-0.1247,-0.1242,-0.1237,-0.1231,-0.1223,-0.1218,-0.1217,-0.1214,-0.1216,-0.1216,-0.1215,-0.1206,-0.1206,-0.1218,-0.1218,-0.1218,-0.1218,-0.1218,-0.1218,-0.1297,-0.1293,-0.1289,-0.1283,-0.1278,-0.1273,-0.127,-0.1265,-0.126,-0.1255,-0.125,-0.1246,-0.1239,-0.1233,-0.1229,-0.1227,-0.1226,-0.1228,-0.1226,-0.1217,-0.1215,-0.1214,-0.1215,-0.1228,-0.1228,-0.1235,-0.1236,-0.1236]}]]